"Period start","avg(HW err(1)/warn(2) (#))","avg(Visibility (m))","avg(Weather code (#))","avg(Precip intensity (mm/h))","min(HW err(1)/warn(2) (#))","max(HW err(1)/warn(2) (#))","std(HW err(1)/warn(2) (#))","med(HW err(1)/warn(2) (#))","min(Visibility (m))","max(Visibility (m))","std(Visibility (m))","med(Visibility (m))","min(Weather code (#))","max(Weather code (#))","std(Weather code (#))","med(Weather code (#))","min(Precip intensity (mm/h))","max(Precip intensity (mm/h))","std(Precip intensity (mm/h))","med(Precip intensity (mm/h))"
2014-07-29 00:00:00,0,2518,10,0.00,0,0,0,0,690,9407,2468,1562,10,10,0,10,0.00,0.00,0.00,0.00
2014-07-29 00:10:00,0,4553,10,0.00,0,0,0,0,806,23997,6582,2163,10,10,0,10,0.00,0.00,0.00,0.00
2014-07-29 00:20:00,0,5913,10,0.00,0,0,0,0,902,33404,9281,2562,10,10,0,10,0.00,0.00,0.00,0.00
2014-07-29 00:30:00,0,1683,10,0.00,0,0,0,0,828,5384,1293,1332,10,10,0,10,0.00,0.00,0.00,0.00
2014-07-29 00:40:00,0,3310,10,0.00,0,0,0,0,585,8829,2381,2836,10,10,0,10,0.00,0.00,0.00,0.00
2014-07-29 00:50:00,0,1045,28,0.00,0,0,0,0,395,2878,720,821,10,34,9,33,0.00,0.00,0.00,0.00
2014-07-29 01:00:00,0,9612,30,0.00,0,0,0,0,669,21891,8131,8414,20,34,6,34,0.00,0.00,0.00,0.00
2014-07-29 01:10:00,0,26348,20,0.00,0,0,0,0,9719,47605,13050,24274,20,20,0,20,0.00,0.00,0.00,0.00
2014-07-29 01:20:00,0,44488,20,0.00,0,0,0,0,32527,50000,5558,44714,20,20,0,20,0.00,0.00,0.00,0.00
2014-07-29 01:30:00,0,42518,20,0.00,0,0,0,0,20839,50000,8895,45832,20,20,0,20,0.00,0.00,0.00,0.00
2014-07-29 01:40:00,0,40764,20,0.00,0,0,0,0,25478,50000,8488,42775,20,20,0,20,0.00,0.00,0.00,0.00
2014-07-29 01:50:00,0,48593,20,0.00,0,0,0,0,39834,50000,2985,50000,20,20,0,20,0.00,0.00,0.00,0.00
2014-07-29 02:00:00,0,43374,14,0.00,0,0,0,0,37709,49285,4662,42468,0,20,9,20,0.00,0.00,0.00,0.00
2014-07-29 02:10:00,0,39049,0,0.00,0,0,0,0,27870,50000,7094,36863,0,0,0,0,0.00,0.00,0.00,0.00
2014-07-29 02:20:00,0,46604,0,0.00,0,0,0,0,37184,50000,4337,48997,0,0,0,0,0.00,0.00,0.00,0.00
2014-07-29 02:30:00,0,49625,0,0.00,0,0,0,0,48263,50000,606,50000,0,0,0,0,0.00,0.00,0.00,0.00
2014-07-29 02:40:00,0,41828,0,0.00,0,0,0,0,34737,45827,3062,41816,0,0,0,0,0.00,0.00,0.00,0.00
2014-07-29 02:50:00,0,40446,0,0.00,0,0,0,0,21588,50000,8667,42746,0,0,0,0,0.00,0.00,0.00,0.00
2014-07-29 03:00:00,0,47412,0,0.00,0,0,0,0,37585,50000,4040,49958,0,0,0,0,0.00,0.00,0.00,0.00
2014-07-29 03:10:00,0,36460,0,0.00,0,0,0,0,23382,46061,7008,38500,0,0,0,0,0.00,0.00,0.00,0.00
2014-07-29 03:20:00,0,38669,0,0.00,0,0,0,0,28042,50000,7094,39404,0,0,0,0,0.00,0.00,0.00,0.00
2014-07-29 03:30:00,0,37787,0,0.00,0,0,0,0,21688,50000,10076,37400,0,0,0,0,0.00,0.00,0.00,0.00
2014-07-29 03:40:00,0,49137,0,0.00,0,0,0,0,45877,50000,1344,50000,0,0,0,0,0.00,0.00,0.00,0.00
2014-07-29 03:50:00,0,47641,0,0.00,0,0,0,0,39587,50000,3661,49776,0,0,0,0,0.00,0.00,0.00,0.00
2014-07-29 04:00:00,0,46880,0,0.00,0,0,0,0,39525,50000,3723,48432,0,0,0,0,0.00,0.00,0.00,0.00
2014-07-29 04:10:00,0,45334,0,0.00,0,0,0,0,38368,50000,3573,46126,0,0,0,0,0.00,0.00,0.00,0.00
2014-07-29 04:20:00,0,44130,0,0.00,0,0,0,0,27958,50000,6897,45682,0,0,0,0,0.00,0.00,0.00,0.00
2014-07-29 04:30:00,0,46335,0,0.00,0,0,0,0,38334,50000,3911,48120,0,0,0,0,0.00,0.00,0.00,0.00
2014-07-29 04:40:00,0,46801,0,0.00,0,0,0,0,37890,50000,4482,50000,0,0,0,0,0.00,0.00,0.00,0.00
2014-07-29 04:50:00,0,43902,0,0.00,0,0,0,0,33984,50000,5746,45615,0,0,0,0,0.00,0.00,0.00,0.00
2014-07-29 05:00:00,0,47437,0,0.00,0,0,0,0,31093,50000,5679,50000,0,0,0,0,0.00,0.00,0.00,0.00
2014-07-29 05:10:00,0,45750,0,0.00,0,0,0,0,37172,50000,3915,46800,0,0,0,0,0.00,0.00,0.00,0.00
2014-07-29 05:20:00,0,48290,0,0.00,0,0,0,0,43450,50000,1860,48687,0,0,0,0,0.00,0.00,0.00,0.00
2014-07-29 05:30:00,0,47484,0,0.00,0,0,0,0,38076,50000,4624,49972,0,0,0,0,0.00,0.00,0.00,0.00
2014-07-29 05:40:00,0,48210,0,0.00,0,0,0,0,39712,50000,3202,50000,0,0,0,0,0.00,0.00,0.00,0.00
2014-07-29 05:50:00,0,49345,0,0.00,0,0,0,0,47166,50000,1067,50000,0,0,0,0,0.00,0.00,0.00,0.00
2014-07-29 06:00:00,0,49814,0,0.00,0,0,0,0,48996,50000,322,50000,0,0,0,0,0.00,0.00,0.00,0.00
2014-07-29 06:10:00,0,45316,0,0.00,0,0,0,0,39615,50000,3788,44887,0,0,0,0,0.00,0.00,0.00,0.00
2014-07-29 06:20:00,0,49603,0,0.00,0,0,0,0,47744,50000,757,50000,0,0,0,0,0.00,0.00,0.00,0.00
2014-07-29 06:30:00,0,49105,0,0.00,0,0,0,0,41878,50000,2422,50000,0,0,0,0,0.00,0.00,0.00,0.00
2014-07-29 06:40:00,0,47878,0,0.00,0,0,0,0,43254,50000,2643,49269,0,0,0,0,0.00,0.00,0.00,0.00
2014-07-29 06:50:00,0,47432,0,0.00,0,0,0,0,40275,50000,3129,49120,0,0,0,0,0.00,0.00,0.00,0.00
2014-07-29 07:00:00,0,47888,0,0.00,0,0,0,0,40088,50000,3265,49450,0,0,0,0,0.00,0.00,0.00,0.00
2014-07-29 07:10:00,0,48492,0,0.00,0,0,0,0,41132,50000,2973,50000,0,0,0,0,0.00,0.00,0.00,0.00
2014-07-29 07:20:00,0,48274,0,0.00,0,0,0,0,43924,50000,1960,48870,0,0,0,0,0.00,0.00,0.00,0.00
2014-07-29 07:30:00,0,47696,0,0.00,0,0,0,0,40048,50000,3794,50000,0,0,0,0,0.00,0.00,0.00,0.00
2014-07-29 07:40:00,0,48844,0,0.00,0,0,0,0,40313,50000,2883,50000,0,0,0,0,0.00,0.00,0.00,0.00
2014-07-29 07:50:00,0,41310,0,0.00,0,0,0,0,27277,50000,7094,41982,0,0,0,0,0.00,0.00,0.00,0.00
2014-07-29 08:00:00,0,42849,0,0.00,0,0,0,0,20892,50000,10168,47068,0,0,0,0,0.00,0.00,0.00,0.00
2014-07-29 08:10:00,0,49512,0,0.00,0,0,0,0,46432,50000,1098,50000,0,0,0,0,0.00,0.00,0.00,0.00
2014-07-29 08:20:00,0,49253,0,0.00,0,0,0,0,43101,50000,2058,50000,0,0,0,0,0.00,0.00,0.00,0.00
2014-07-29 08:30:00,0,49330,0,0.00,0,0,0,0,43302,50000,2009,50000,0,0,0,0,0.00,0.00,0.00,0.00
2014-07-29 08:40:00,0,47465,0,0.00,0,0,0,0,43492,50000,2486,47974,0,0,0,0,0.00,0.00,0.00,0.00
2014-07-29 08:50:00,0,48450,0,0.00,0,0,0,0,44751,50000,1749,49222,0,0,0,0,0.00,0.00,0.00,0.00
2014-07-29 09:00:00,0,48484,0,0.00,0,0,0,0,43485,50000,2400,50000,0,0,0,0,0.00,0.00,0.00,0.00
2014-07-29 09:10:00,0,47843,0,0.00,0,0,0,0,43675,50000,2377,49010,0,0,0,0,0.00,0.00,0.00,0.00
2014-07-29 09:20:00,0,49926,0,0.00,0,0,0,0,49259,50000,222,50000,0,0,0,0,0.00,0.00,0.00,0.00
2014-07-29 09:30:00,0,49722,0,0.00,0,0,0,0,47223,50000,833,50000,0,0,0,0,0.00,0.00,0.00,0.00
2014-07-29 09:40:00,0,49616,0,0.00,0,0,0,0,47150,50000,874,50000,0,0,0,0,0.00,0.00,0.00,0.00
2014-07-29 09:50:00,0,49933,0,0.00,0,0,0,0,49329,50000,201,50000,0,0,0,0,0.00,0.00,0.00,0.00
2014-07-29 10:00:00,0,48831,0,0.00,0,0,0,0,44241,50000,2145,50000,0,0,0,0,0.00,0.00,0.00,0.00
2014-07-29 10:10:00,0,45568,0,0.00,0,0,0,0,27956,50000,7626,50000,0,0,0,0,0.00,0.00,0.00,0.00
2014-07-29 10:20:00,0,48910,0,0.00,0,0,0,0,43039,50000,2264,50000,0,0,0,0,0.00,0.00,0.00,0.00
2014-07-29 10:30:00,0,49341,0,0.00,0,0,0,0,47253,50000,1054,50000,0,0,0,0,0.00,0.00,0.00,0.00
2014-07-29 10:40:00,0,48663,0,0.00,0,0,0,0,44016,50000,1935,50000,0,0,0,0,0.00,0.00,0.00,0.00
2014-07-29 10:50:00,0,47921,0,0.00,0,0,0,0,38775,50000,3433,50000,0,0,0,0,0.00,0.00,0.00,0.00
2014-07-29 11:00:00,0,44259,0,0.00,0,0,0,0,38953,50000,4421,43805,0,0,0,0,0.00,0.00,0.00,0.00
2014-07-29 11:10:00,0,47387,0,0.00,0,0,0,0,40737,50000,3115,48860,0,0,0,0,0.00,0.00,0.00,0.00
2014-07-29 11:20:00,0,41039,0,0.00,0,0,0,0,11508,50000,11354,45052,0,0,0,0,0.00,0.00,0.00,0.00
2014-07-29 11:30:00,0,43625,0,0.00,0,0,0,0,33475,49543,5282,45784,0,0,0,0,0.00,0.00,0.00,0.00
2014-07-29 11:40:00,0,47154,0,0.00,0,0,0,0,38519,50000,3774,48946,0,0,0,0,0.00,0.00,0.00,0.00
2014-07-29 11:50:00,0,39805,0,0.00,0,0,0,0,32084,46103,4929,40266,0,0,0,0,0.00,0.00,0.00,0.00
2014-07-29 12:00:00,0,48059,0,0.00,0,0,0,0,42708,50000,2383,48805,0,0,0,0,0.00,0.00,0.00,0.00
2014-07-29 12:10:00,0,45761,0,0.00,0,0,0,0,39210,50000,3937,46460,0,0,0,0,0.00,0.00,0.00,0.00
2014-07-29 12:20:00,0,50000,0,0.00,0,0,0,0,50000,50000,0,50000,0,0,0,0,0.00,0.00,0.00,0.00
2014-07-29 12:30:00,0,50000,0,0.00,0,0,0,0,50000,50000,0,50000,0,0,0,0,0.00,0.00,0.00,0.00
2014-07-29 12:40:00,0,49416,0,0.00,0,0,0,0,46790,50000,1008,50000,0,0,0,0,0.00,0.00,0.00,0.00
2014-07-29 12:50:00,0,49972,0,0.00,0,0,0,0,49722,50000,83,50000,0,0,0,0,0.00,0.00,0.00,0.00
2014-07-29 13:00:00,0,50000,0,0.00,0,0,0,0,50000,50000,0,50000,0,0,0,0,0.00,0.00,0.00,0.00
2014-07-29 13:10:00,0,50000,0,0.00,0,0,0,0,50000,50000,0,50000,0,0,0,0,0.00,0.00,0.00,0.00
2014-07-29 13:20:00,0,50000,0,0.00,0,0,0,0,50000,50000,0,50000,0,0,0,0,0.00,0.00,0.00,0.00
2014-07-29 13:30:00,0,50000,0,0.00,0,0,0,0,50000,50000,0,50000,0,0,0,0,0.00,0.00,0.00,0.00
2014-07-29 13:40:00,0,50000,0,0.00,0,0,0,0,50000,50000,0,50000,0,0,0,0,0.00,0.00,0.00,0.00
2014-07-29 13:50:00,0,50000,0,0.00,0,0,0,0,50000,50000,0,50000,0,0,0,0,0.00,0.00,0.00,0.00
2014-07-29 14:00:00,0,50000,0,0.00,0,0,0,0,50000,50000,0,50000,0,0,0,0,0.00,0.00,0.00,0.00
2014-07-29 14:10:00,0,50000,0,0.00,0,0,0,0,50000,50000,0,50000,0,0,0,0,0.00,0.00,0.00,0.00
2014-07-29 14:20:00,0,48748,0,0.00,0,0,0,0,43394,50000,2290,50000,0,0,0,0,0.00,0.00,0.00,0.00
2014-07-29 14:30:00,0,50000,0,0.00,0,0,0,0,50000,50000,0,50000,0,0,0,0,0.00,0.00,0.00,0.00
2014-07-29 14:40:00,0,50000,0,0.00,0,0,0,0,50000,50000,0,50000,0,0,0,0,0.00,0.00,0.00,0.00
2014-07-29 14:50:00,0,49894,0,0.00,0,0,0,0,48936,50000,319,50000,0,0,0,0,0.00,0.00,0.00,0.00
2014-07-29 15:00:00,0,50000,0,0.00,0,0,0,0,50000,50000,0,50000,0,0,0,0,0.00,0.00,0.00,0.00
2014-07-29 15:10:00,0,50000,0,0.00,0,0,0,0,50000,50000,0,50000,0,0,0,0,0.00,0.00,0.00,0.00
2014-07-29 15:20:00,0,49975,0,0.00,0,0,0,0,49748,50000,76,50000,0,0,0,0,0.00,0.00,0.00,0.00
2014-07-29 15:30:00,0,50000,0,0.00,0,0,0,0,50000,50000,0,50000,0,0,0,0,0.00,0.00,0.00,0.00
2014-07-29 15:40:00,0,49777,0,0.00,0,0,0,0,47768,50000,670,50000,0,0,0,0,0.00,0.00,0.00,0.00
2014-07-29 15:50:00,0,49989,0,0.00,0,0,0,0,49891,50000,33,50000,0,0,0,0,0.00,0.00,0.00,0.00
2014-07-29 16:00:00,0,50000,0,0.00,0,0,0,0,50000,50000,0,50000,0,0,0,0,0.00,0.00,0.00,0.00
2014-07-29 16:10:00,0,49977,0,0.00,0,0,0,0,49767,50000,70,50000,0,0,0,0,0.00,0.00,0.00,0.00
2014-07-29 16:20:00,0,49897,0,0.00,0,0,0,0,49165,50000,251,50000,0,0,0,0,0.00,0.00,0.00,0.00
2014-07-29 16:30:00,0,49964,0,0.00,0,0,0,0,49638,50000,109,50000,0,0,0,0,0.00,0.00,0.00,0.00
2014-07-29 16:40:00,0,50000,0,0.00,0,0,0,0,50000,50000,0,50000,0,0,0,0,0.00,0.00,0.00,0.00
2014-07-29 16:50:00,0,49995,0,0.00,0,0,0,0,49946,50000,16,50000,0,0,0,0,0.00,0.00,0.00,0.00
2014-07-29 17:00:00,0,49031,0,0.00,0,0,0,0,46640,50000,1137,49540,0,0,0,0,0.00,0.00,0.00,0.00
2014-07-29 17:10:00,0,49726,0,0.00,0,0,0,0,47470,50000,753,50000,0,0,0,0,0.00,0.00,0.00,0.00
2014-07-29 17:20:00,0,49958,0,0.00,0,0,0,0,49581,50000,126,50000,0,0,0,0,0.00,0.00,0.00,0.00
2014-07-29 17:30:00,0,49966,0,0.00,0,0,0,0,49664,50000,101,50000,0,0,0,0,0.00,0.00,0.00,0.00
2014-07-29 17:40:00,0,43242,0,0.00,0,0,0,0,33681,50000,5513,43282,0,0,0,0,0.00,0.00,0.00,0.00
2014-07-29 17:50:00,0,30356,0,0.00,0,0,0,0,23434,37345,4394,31000,0,0,0,0,0.00,0.00,0.00,0.00
2014-07-29 18:00:00,0,31272,0,0.00,0,0,0,0,26484,41060,4904,29344,0,0,0,0,0.00,0.00,0.00,0.00
2014-07-29 18:10:00,0,28838,0,0.00,0,0,0,0,21312,39986,6269,27829,0,0,0,0,0.00,0.00,0.00,0.00
2014-07-29 18:20:00,0,21081,0,0.00,0,0,0,0,17303,25581,2218,20769,0,0,0,0,0.00,0.00,0.00,0.00
2014-07-29 18:30:00,0,19310,0,0.00,0,0,0,0,16022,21822,2094,20198,0,0,0,0,0.00,0.00,0.00,0.00
2014-07-29 18:40:00,0,28246,0,0.00,0,0,0,0,21248,40924,6714,25356,0,0,0,0,0.00,0.00,0.00,0.00
2014-07-29 18:50:00,0,20914,0,0.00,0,0,0,0,17206,23501,1760,21322,0,0,0,0,0.00,0.00,0.00,0.00
2014-07-29 19:00:00,0,22241,0,0.00,0,0,0,0,19075,25274,1939,21724,0,0,0,0,0.00,0.00,0.00,0.00
2014-07-29 19:10:00,0,20792,0,0.00,0,0,0,0,17809,23538,1731,20456,0,0,0,0,0.00,0.00,0.00,0.00
2014-07-29 19:20:00,0,19296,0,0.00,0,0,0,0,16626,22614,1895,18826,0,0,0,0,0.00,0.00,0.00,0.00
2014-07-29 19:30:00,0,14316,0,0.00,0,0,0,0,13639,15768,654,13983,0,0,0,0,0.00,0.00,0.00,0.00
2014-07-29 19:40:00,0,13722,0,0.00,0,0,0,0,12757,14541,539,13834,0,0,0,0,0.00,0.00,0.00,0.00
2014-07-29 19:50:00,0,14118,0,0.00,0,0,0,0,12964,15237,633,14135,0,0,0,0,0.00,0.00,0.00,0.00
2014-07-29 20:00:00,0,13565,0,0.00,0,0,0,0,12190,14846,817,13396,0,0,0,0,0.00,0.00,0.00,0.00
2014-07-29 20:10:00,0,13569,0,0.00,0,0,0,0,12302,15268,773,13565,0,0,0,0,0.00,0.00,0.00,0.00
2014-07-29 20:20:00,0,12708,0,0.00,0,0,0,0,11890,13424,463,12842,0,0,0,0,0.00,0.00,0.00,0.00
2014-07-29 20:30:00,0,12551,0,0.00,0,0,0,0,11209,14463,1065,12561,0,0,0,0,0.00,0.00,0.00,0.00
2014-07-29 20:40:00,0,12226,0,0.00,0,0,0,0,11374,13133,596,12312,0,0,0,0,0.00,0.00,0.00,0.00
2014-07-29 20:50:00,0,11855,0,0.00,0,0,0,0,10972,13685,817,11631,0,0,0,0,0.00,0.00,0.00,0.00
2014-07-29 21:00:00,0,11641,0,0.00,0,0,0,0,10786,12202,434,11664,0,0,0,0,0.00,0.00,0.00,0.00
2014-07-29 21:10:00,0,11556,0,0.00,0,0,0,0,10923,12383,545,11327,0,0,0,0,0.00,0.00,0.00,0.00
2014-07-29 21:20:00,0,11737,2,0.00,0,0,0,0,10428,12612,605,11950,0,4,2,0,0.00,0.00,0.00,0.00
2014-07-29 21:30:00,0,12354,0,0.00,0,0,0,0,11097,13757,931,12471,0,0,0,0,0.00,0.00,0.00,0.00
2014-07-29 21:40:00,0,11693,0,0.00,0,0,0,0,10813,12772,525,11699,0,0,0,0,0.00,0.00,0.00,0.00
2014-07-29 21:50:00,0,11883,0,0.00,0,0,0,0,11003,13095,683,11884,0,0,0,0,0.00,0.00,0.00,0.00
2014-07-29 22:00:00,0,11655,0,0.00,0,0,0,0,10228,12813,707,11902,0,0,0,0,0.00,0.00,0.00,0.00
2014-07-29 22:10:00,0,11834,0,0.00,0,0,0,0,10817,13814,929,11395,0,0,0,0,0.00,0.00,0.00,0.00
2014-07-29 22:20:00,0,11951,0,0.00,0,0,0,0,10552,12886,732,12002,0,0,0,0,0.00,0.00,0.00,0.00
2014-07-29 22:30:00,0,11652,0,0.00,0,0,0,0,10594,12377,547,11640,0,0,0,0,0.00,0.00,0.00,0.00
2014-07-29 22:40:00,0,12141,0,0.00,0,0,0,0,11056,13676,980,11819,0,0,0,0,0.00,0.00,0.00,0.00
2014-07-29 22:50:00,0,11898,0,0.00,0,0,0,0,10282,13273,950,12120,0,0,0,0,0.00,0.00,0.00,0.00
2014-07-29 23:00:00,0,11318,1,0.00,0,0,0,0,10035,12412,645,11278,0,4,2,0,0.00,0.00,0.00,0.00
2014-07-29 23:10:00,0,11778,3,0.00,0,0,0,0,10159,13725,1057,11814,0,4,2,4,0.00,0.00,0.00,0.00
2014-07-29 23:20:00,0,12357,0,0.00,0,0,0,0,9203,14306,1529,12515,0,0,0,0,0.00,0.00,0.00,0.00
2014-07-29 23:30:00,0,13017,0,0.00,0,0,0,0,10712,16054,1652,12360,0,0,0,0,0.00,0.00,0.00,0.00
2014-07-29 23:40:00,0,11231,0,0.00,0,0,0,0,9508,12697,1029,11456,0,0,0,0,0.00,0.00,0.00,0.00
2014-07-29 23:50:00,0,11602,0,0.00,0,0,0,0,10617,12805,792,11257,0,0,0,0,0.00,0.00,0.00,0.00
